TimeEDT,TemperatureF,Dew PointF,Humidity,Sea Level PressureIn,VisibilityMPH,Wind Direction,Wind SpeedMPH,Gust SpeedMPH,PrecipitationIn,Events,Conditions,WindDirDegrees,DateUTC
12:15 AM,48.2,48.2,100,30.20,10.0,Calm,Calm,-,N/A,,Clear,0,2012-10-23 04:15:00
12:35 AM,48.2,48.2,100,30.21,10.0,Calm,Calm,-,N/A,,Clear,0,2012-10-23 04:35:00
12:55 AM,46.4,46.4,100,30.20,10.0,Calm,Calm,-,N/A,,Clear,0,2012-10-23 04:55:00
1:15 AM,46.4,46.4,100,30.20,10.0,Calm,Calm,-,N/A,,Clear,0,2012-10-23 05:15:00
1:35 AM,46.4,46.4,100,30.20,10.0,Calm,Calm,-,N/A,,Clear,0,2012-10-23 05:35:00
1:55 AM,46.4,46.4,100,30.19,10.0,Calm,Calm,-,N/A,,Clear,0,2012-10-23 05:55:00
2:15 AM,46.4,46.4,100,30.19,10.0,Calm,Calm,-,N/A,,Clear,0,2012-10-23 06:15:00
2:35 AM,46.4,46.4,100,30.19,8.0,Calm,Calm,-,N/A,,Clear,0,2012-10-23 06:35:00
2:55 AM,44.6,44.6,100,30.18,9.0,Calm,Calm,-,N/A,,Clear,0,2012-10-23 06:55:00
3:15 AM,44.6,44.6,100,30.18,10.0,Calm,Calm,-,N/A,,Clear,0,2012-10-23 07:15:00
3:35 AM,44.6,44.6,100,30.18,10.0,Calm,Calm,-,N/A,,Clear,0,2012-10-23 07:35:00
3:55 AM,44.6,44.6,100,30.18,8.0,Calm,Calm,-,N/A,,Clear,0,2012-10-23 07:55:00
4:15 AM,44.6,44.6,100,30.18,7.0,Calm,Calm,-,N/A,,Clear,0,2012-10-23 08:15:00
4:35 AM,44.6,44.6,100,30.17,9.0,Calm,Calm,-,N/A,,Clear,0,2012-10-23 08:35:00
4:55 AM,44.6,44.6,100,30.17,10.0,Calm,Calm,-,N/A,,Clear,0,2012-10-23 08:55:00
5:15 AM,44.6,44.6,100,30.17,9.0,Calm,Calm,-,N/A,,Clear,0,2012-10-23 09:15:00
5:35 AM,41.0,41.0,100,30.17,7.0,Calm,Calm,-,N/A,,Clear,0,2012-10-23 09:35:00
5:55 AM,42.8,42.8,100,30.18,8.0,Calm,Calm,-,N/A,,Clear,0,2012-10-23 09:55:00
6:15 AM,41.0,41.0,100,30.19,10.0,Calm,Calm,-,N/A,,Clear,0,2012-10-23 10:15:00
6:35 AM,42.8,42.8,100,30.19,10.0,Calm,Calm,-,N/A,,Clear,0,2012-10-23 10:35:00
6:55 AM,42.8,42.8,100,30.20,10.0,Calm,Calm,-,N/A,,Clear,0,2012-10-23 10:55:00
7:35 AM,41.0,41.0,100,30.21,10.0,Calm,Calm,-,N/A,,Clear,0,2012-10-23 11:35:00
7:55 AM,41.0,41.0,100,30.22,10.0,Calm,Calm,-,N/A,,Clear,0,2012-10-23 11:55:00
8:15 AM,44.6,44.6,100,30.22,10.0,Calm,Calm,-,N/A,,Clear,0,2012-10-23 12:15:00
8:35 AM,46.4,46.4,100,30.23,9.0,Calm,Calm,-,N/A,,Clear,0,2012-10-23 12:35:00
8:55 AM,50.0,50.0,100,30.23,10.0,Calm,Calm,-,N/A,,Clear,0,2012-10-23 12:55:00
9:15 AM,53.6,53.6,100,30.23,10.0,Calm,Calm,-,N/A,,Clear,0,2012-10-23 13:15:00
9:35 AM,55.4,53.6,94,30.23,10.0,Calm,Calm,-,N/A,,Clear,0,2012-10-23 13:35:00
9:55 AM,59.0,53.6,82,30.24,10.0,Calm,Calm,-,N/A,,Clear,0,2012-10-23 13:55:00
10:15 AM,62.6,53.6,72,30.24,10.0,Calm,Calm,-,N/A,,Clear,0,2012-10-23 14:15:00
10:35 AM,66.2,53.6,64,30.23,10.0,Calm,Calm,-,N/A,,Clear,0,2012-10-23 14:35:00
10:55 AM,68.0,53.6,60,30.23,10.0,Calm,Calm,-,N/A,,Clear,0,2012-10-23 14:55:00
11:15 AM,69.8,53.6,56,30.23,10.0,Calm,Calm,-,N/A,,Clear,0,2012-10-23 15:15:00
11:55 AM,71.6,51.8,50,30.22,10.0,Calm,Calm,-,N/A,,Clear,0,2012-10-23 15:55:00
12:15 PM,73.4,50.0,44,30.21,10.0,Calm,Calm,-,N/A,,Clear,0,2012-10-23 16:15:00
12:35 PM,73.4,50.0,44,30.20,10.0,South,5.8,-,N/A,,Clear,170,2012-10-23 16:35:00
12:55 PM,75.2,48.2,38,30.19,10.0,South,6.9,-,N/A,,Clear,170,2012-10-23 16:55:00
1:15 PM,73.4,48.2,41,30.18,10.0,Calm,Calm,-,N/A,,Clear,0,2012-10-23 17:15:00
1:35 PM,75.2,48.2,38,30.17,10.0,Calm,Calm,-,N/A,,Clear,0,2012-10-23 17:35:00
1:55 PM,75.2,48.2,38,30.16,10.0,Calm,Calm,-,N/A,,Clear,0,2012-10-23 17:55:00
2:15 PM,77.0,48.2,36,30.15,10.0,Calm,Calm,-,N/A,,Clear,0,2012-10-23 18:15:00
2:35 PM,77.0,48.2,36,30.15,10.0,Calm,Calm,-,N/A,,Clear,0,2012-10-23 18:35:00
2:55 PM,77.0,48.2,36,30.14,10.0,Calm,Calm,-,N/A,,Clear,0,2012-10-23 18:55:00
3:15 PM,77.0,46.4,34,30.13,10.0,ESE,3.5,-,N/A,,Clear,110,2012-10-23 19:15:00
3:35 PM,77.0,46.4,34,30.14,10.0,Calm,Calm,-,N/A,,Clear,0,2012-10-23 19:35:00
3:55 PM,77.0,46.4,34,30.13,10.0,Calm,Calm,-,N/A,,Clear,0,2012-10-23 19:55:00
4:15 PM,77.0,46.4,34,30.13,10.0,SSW,3.5,-,N/A,,Clear,200,2012-10-23 20:15:00
4:35 PM,77.0,46.4,34,30.13,10.0,Calm,Calm,-,N/A,,Clear,0,2012-10-23 20:35:00
4:55 PM,77.0,46.4,34,30.13,10.0,Calm,Calm,-,N/A,,Clear,0,2012-10-23 20:55:00
5:15 PM,77.0,46.4,34,30.12,10.0,Calm,Calm,-,N/A,,Clear,0,2012-10-23 21:15:00
5:35 PM,77.0,48.2,36,30.12,10.0,Calm,Calm,-,N/A,,Clear,0,2012-10-23 21:35:00
5:55 PM,75.2,51.8,44,30.13,10.0,Calm,Calm,-,N/A,,Clear,0,2012-10-23 21:55:00
6:15 PM,73.4,55.4,53,30.13,10.0,Calm,Calm,-,N/A,,Clear,0,2012-10-23 22:15:00
6:35 PM,66.2,55.4,68,30.13,10.0,Calm,Calm,-,N/A,,Clear,0,2012-10-23 22:35:00
6:55 PM,62.6,53.6,72,30.13,10.0,Calm,Calm,-,N/A,,Clear,0,2012-10-23 22:55:00
7:15 PM,59.0,53.6,82,30.14,10.0,Calm,Calm,-,N/A,,Clear,0,2012-10-23 23:15:00
7:35 PM,57.2,53.6,88,30.15,10.0,Calm,Calm,-,N/A,,Clear,0,2012-10-23 23:35:00
7:55 PM,57.2,53.6,88,30.15,10.0,Calm,Calm,-,N/A,,Clear,0,2012-10-23 23:55:00
8:15 PM,55.4,53.6,94,30.15,10.0,Calm,Calm,-,N/A,,Clear,0,2012-10-24 00:15:00
8:35 PM,55.4,53.6,94,30.15,10.0,Calm,Calm,-,N/A,,Clear,0,2012-10-24 00:35:00
8:55 PM,55.4,53.6,94,30.16,10.0,Calm,Calm,-,N/A,,Clear,0,2012-10-24 00:55:00
9:15 PM,53.6,53.6,100,30.16,10.0,Calm,Calm,-,N/A,,Clear,0,2012-10-24 01:15:00
9:35 PM,53.6,51.8,94,30.16,10.0,Calm,Calm,-,N/A,,Clear,0,2012-10-24 01:35:00
9:55 PM,51.8,51.8,100,30.17,10.0,Calm,Calm,-,N/A,,Clear,0,2012-10-24 01:55:00
10:15 PM,51.8,51.8,100,30.17,10.0,Calm,Calm,-,N/A,,Clear,0,2012-10-24 02:15:00
10:35 PM,50.0,50.0,100,30.17,10.0,Calm,Calm,-,N/A,,Clear,0,2012-10-24 02:35:00
10:55 PM,50.0,50.0,100,30.17,10.0,Calm,Calm,-,N/A,,Clear,0,2012-10-24 02:55:00
11:15 PM,50.0,50.0,100,30.17,10.0,Calm,Calm,-,N/A,,Clear,0,2012-10-24 03:15:00
11:35 PM,50.0,50.0,100,30.18,10.0,Calm,Calm,-,N/A,,Clear,0,2012-10-24 03:35:00
11:55 PM,50.0,50.0,100,30.18,10.0,Calm,Calm,-,N/A,,Clear,0,2012-10-24 03:55:00